Theta_e
320 319 318 319 320 316 317 318 318 317 316 318 317 317 316 314 313 312 312 313 313 313 314 316 318 319 319 323 328 330 331 331 330 327 325 327 329 329 330 330 329 329 328 328
321 319 314 314 319 320 316 318 317 316 316 317 316 317 314 313 314 312 311 311 312 313 312 315 317 318 317 319 322 328 330 330 330 328 325 324 325 326 328 329 330 329 328 327
316 312 314 315 319 322 322 317 315 316 317 316 316 317 315 313 312 312 312 311 312 312 313 312 315 319 318 317 319 322 327 329 329 329 324 323 323 323 323 324 325 327 327 326
317 314 315 316 317 319 320 319 315 318 318 317 316 313 310 312 314 314 313 311 311 311 310 310 312 315 315 316 317 318 321 326 327 326 323 322 322 322 322 322 322 322 323 324
315 317 316 318 317 318 316 316 318 316 318 317 316 318 313 314 314 314 312 310 310 309 309 310 311 313 314 315 315 316 318 323 327 326 324 324 322 323 323 322 322 322 322 322
312 313 315 316 316 317 314 315 317 317 318 322 315 318 313 313 314 314 312 311 310 310 310 308 311 311 313 314 314 315 316 320 325 327 325 324 324 324 324 323 323 322 322 322
315 314 314 314 316 316 316 316 317 323 323 317 312 317 315 310 310 310 309 308 307 307 307 306 306 309 311 313 315 315 315 321 325 328 326 325 325 325 324 324 323 323 322 322
318 318 314 313 316 318 319 317 313 312 315 316 313 318 315 312 311 310 309 309 309 308 306 306 307 311 311 309 309 311 315 318 324 327 328 326 325 325 325 324 324 323 322 322
317 315 311 312 313 315 318 320 313 312 307 308 312 311 313 312 311 310 311 308 307 308 308 306 304 306 306 308 308 308 309 309 311 320 326 328 327 325 325 325 325 324 324 323
312 315 310 313 313 313 315 313 319 317 315 316 314 314 313 314 312 312 313 310 306 304 304 302 302 304 306 306 307 308 308 308 309 309 309 312 322 327 327 325 325 325 325 324
311 311 310 312 314 317 316 316 315 314 316 317 312 312 308 311 310 312 310 306 305 303 302 302 302 304 304 305 305 304 304 305 306 306 307 308 309 309 310 324 327 326 326 326
313 313 315 313 311 312 314 315 315 316 310 313 311 311 310 308 307 308 307 306 306 305 304 302 302 303 303 303 303 303 303 302 302 302 303 305 306 308 309 309 310 324 327 327
312 314 314 314 312 312 315 314 313 314 310 315 317 314 308 308 308 308 307 306 307 308 305 304 304 303 302 302 302 303 303 303 302 302 302 301 302 303 304 307 308 309 317 326
311 312 314 312 312 312 315 314 314 314 316 315 313 311 311 309 310 309 307 306 306 307 307 307 304 303 302 301 301 301 301 300 300 301 300 301 299 300 301 303 305 307 309 313
312 313 312 312 309 310 312 313 314 315 314 314 312 311 309 309 309 308 308 307 306 305 303 302 302 300 300 299 299 299 298 298 298 298 299 299 299 299 299 300 301 303 305 308
311 312 312 312 310 309 312 312 312 313 314 314 312 310 308 307 307 306 305 304 304 303 302 300 299 298 297 296 296 295 295 295 295 297 297 298 299 297 299 298 298 300 301 303
312 313 314 314 311 309 312 311 311 311 312 313 315 312 307 307 306 306 304 303 302 300 298 296 295 295 293 293 292 291 292 292 293 293 294 294 294 295 295 297 296 297 299 301
311 312 312 310 313 315 311 305 309 311 311 312 313 311 308 307 303 301 301 299 297 295 293 292 291 290 290 290 288 289 289 289 290 291 290 291 291 291 293 293 294 295 296 298
305 311 313 313 312 310 309 306 310 312 312 308 312 309 305 301 298 296 294 293 291 290 289 287 286 287 286 284 285 286 286 286 287 287 287 287 288 289 291 292 293 293 294 296
307 310 311 312 313 314 306 302 295 308 314 294 296 305 305 304 308 299 290 289 286 285 284 282 283 282 281 281 282 282 282 283 283 282 284 286 287 288 290 291 292 292 293 294
312 311 313 312 312 303 292 288 293 313 306 288 287 289 301 297 293 288 286 284 282 281 280 279 279 279 279 279 278 279 279 280 278 279 283 284 286 287 288 290 291 292 293 294
312 314 312 307 308 310 284 292 302 292 284 283 281 281 285 284 284 283 282 281 279 278 278 277 276 276 277 276 275 276 277 275 276 279 279 280 285 286 287 289 290 292 292 293
306 295 298 295 293 283 282 282 281 282 281 279 279 278 279 281 280 279 278 278 277 276 276 274 273 274 274 273 273 273 273 273 274 275 276 278 283 285 286 287 289 291 292 293
291 282 291 290 283 280 280 279 278 277 277 276 276 276 276 277 277 277 277 276 274 273 273 271 272 272 272 270 270 270 270 271 272 273 274 276 280 284 284 286 288 290 291 292
277 280 285 283 281 279 277 275 276 275 275 274 274 274 274 274 274 273 273 272 271 271 270 269 270 269 269 268 267 268 268 269 270 271 272 275 277 280 283 284 286 288 290 292
274 273 279 282 276 278 276 273 273 273 272 271 272 272 271 271 271 269 270 269 268 268 267 267 267 266 266 265 266 266 266 267 267 269 270 271 274 277 281 283 284 285 288 290
Wind_Speed
6 7 20 26 17 5 7 5 7 3 4 3 7 14 16 13 6 10 9 8 10 11 19 23 19 15 17 21 28 34 36 39 40 39 37 37 42 42 43 42 41 39 37 38
6 22 14 8 10 7 5 8 5 3 4 2 7 16 13 9 15 9 8 9 10 8 7 18 25 21 21 22 27 32 38 39 40 40 41 35 31 34 42 44 45 44 41 41
20 10 16 12 13 16 17 14 5 2 0 3 5 15 15 8 7 6 8 9 7 10 11 9 18 27 29 26 28 31 35 40 42 43 35 29 29 29 31 40 44 49 46 44
14 18 14 16 17 17 20 15 5 6 3 6 6 11 8 4 9 7 9 7 8 10 9 9 15 26 30 30 29 31 33 36 39 40 33 35 34 31 37 37 32 36 45 48
14 8 12 16 18 15 9 8 14 6 7 4 7 3 5 3 7 6 9 8 10 10 11 12 15 20 26 25 26 26 29 36 38 39 40 39 34 34 35 30 34 37 40 45
23 5 14 11 10 17 7 6 4 4 5 9 21 9 20 8 6 4 7 9 9 11 11 9 21 21 21 22 18 22 25 31 36 38 41 40 39 37 31 31 33 35 37 40
20 7 2 7 8 6 6 8 4 7 9 15 9 8 21 3 3 5 10 11 11 9 8 8 9 15 19 20 16 15 17 25 29 34 37 39 41 39 36 35 31 31 31 33
15 13 15 6 9 8 20 14 5 9 6 8 5 10 14 1 9 12 9 11 7 9 7 7 8 7 9 14 17 16 13 12 17 24 33 38 39 36 34 32 31 32 33 34
15 16 8 5 6 17 11 17 11 4 2 2 5 7 8 9 8 8 8 7 8 5 2 8 10 9 12 18 18 17 20 21 15 12 19 27 33 35 35 35 37 35 36 35
3 7 5 18 7 12 12 9 9 8 8 9 4 4 9 2 7 3 4 5 7 7 7 6 7 14 18 20 21 21 21 20 21 20 16 14 19 26 33 36 37 37 37 37
2 2 3 14 16 19 7 9 5 3 7 6 3 8 7 10 8 5 6 7 6 7 6 6 8 18 22 24 25 24 26 24 24 23 22 20 18 17 19 29 34 36 36 37
19 3 5 17 17 22 22 23 23 8 10 7 2 10 2 7 6 10 8 7 5 5 4 5 10 17 23 24 27 28 29 29 28 26 25 24 23 22 21 21 23 31 36 36
17 8 5 3 2 5 18 19 17 16 2 10 8 7 3 8 6 5 9 7 6 5 6 4 6 8 12 16 19 23 27 29 31 32 29 29 28 28 29 26 25 23 28 34
22 20 12 16 11 8 15 21 20 20 13 16 14 16 4 5 8 6 5 6 7 6 5 4 0 5 8 10 16 19 22 24 26 27 28 30 31 30 31 31 28 27 27 27
20 21 23 15 7 10 19 24 24 21 25 18 23 18 14 13 10 9 8 6 6 6 4 6 6 5 11 14 18 19 21 25 27 28 28 30 34 34 33 34 33 31 29 27
20 10 17 19 12 7 11 19 24 26 25 23 19 14 13 10 7 7 9 8 7 6 5 5 5 7 10 14 17 18 23 27 29 29 30 32 35 38 38 37 37 34 33 32
17 13 9 22 21 2 9 21 23 22 29 26 18 27 7 9 8 10 8 8 8 7 5 4 5 8 11 15 18 21 23 25 25 26 27 31 34 36 38 38 38 35 35 33
11 20 11 4 11 20 13 2 20 25 22 22 19 15 10 5 8 10 6 9 7 6 6 6 9 11 14 16 19 21 24 25 26 24 28 33 34 33 36 35 33 34 32 31
9 14 9 9 12 3 4 5 14 17 15 6 20 7 7 15 8 6 7 9 8 7 7 8 13 14 15 19 23 23 22 23 24 26 29 32 31 33 33 32 32 34 31 29
15 22 15 8 12 13 5 3 7 4 12 8 6 5 11 13 9 4 6 7 7 9 9 11 12 12 16 20 20 20 20 20 21 27 28 28 27 27 29 31 31 33 33 31
14 12 16 13 6 4 5 14 9 10 3 7 9 9 4 5 5 9 7 8 10 11 12 13 13 13 15 17 21 18 19 19 25 25 24 28 27 27 27 30 31 32 33 33
7 9 5 4 4 5 14 3 0 5 10 10 12 12 14 12 9 9 8 8 10 11 13 16 16 15 16 19 21 19 18 26 27 25 28 27 25 26 27 28 31 31 30 29
3 3 3 4 4 6 11 13 11 12 10 11 10 11 9 10 9 9 8 9 11 14 15 18 19 18 17 19 20 21 25 27 28 29 30 28 27 26 25 27 29 28 26 25
4 10 4 5 6 10 12 12 13 12 11 11 11 10 10 9 9 9 8 9 13 16 19 19 18 19 20 22 22 21 25 28 29 29 29 28 27 27 26 25 24 24 24 25
5 9 6 7 9 11 12 12 11 11 11 12 11 11 11 10 11 12 10 12 17 18 19 18 17 19 22 24 25 28 26 26 27 26 27 26 25 27 28 26 25 26 26 25
8 7 4 3 7 4 8 10 13 11 11 12 11 11 14 14 12 16 11 15 15 18 19 18 19 20 23 27 28 30 28 25 25 26 24 26 27 28 25 27 34 26 26 29
Wind_Direction
189 181 209 205 202 200 162 193 196 221 244 192 237 257 258 271 252 255 248 247 250 259 265 272 264 256 263 257 250 245 240 239 233 229 228 231 234 236 239 240 244 245 244 243
180 222 207 148 193 210 198 212 214 270 265 175 293 273 265 259 262 232 224 239 237 243 260 271 268 265 258 261 254 249 244 242 235 228 228 226 231 237 241 242 241 240 243 242
203 216 187 181 190 203 222 215 178 170 320 276 21 288 267 244 258 232 228 225 232 232 238 245 259 264 269 262 254 253 252 246 241 237 225 226 230 239 239 242 242 242 239 241
222 231 189 187 204 193 221 222 144 173 121 233 147 270 216 227 239 239 229 214 230 240 249 249 258 269 269 273 271 261 257 252 246 240 219 219 220 225 234 237 243 244 245 240
212 157 181 202 209 181 223 159 201 184 220 33 243 266 272 221 240 235 249 226 234 247 245 251 254 265 288 289 280 277 267 255 250 237 226 223 223 230 236 238 241 244 249 248
216 173 183 198 177 187 130 82 86 148 175 233 236 195 270 225 203 215 248 253 247 244 257 266 275 285 289 290 289 284 269 258 252 239 236 223 226 229 232 234 237 240 242 245
212 199 222 145 154 158 170 126 163 210 209 230 186 175 242 263 330 216 258 250 245 258 267 274 280 292 302 313 318 310 291 259 250 242 235 233 233 235 234 236 236 237 238 238
187 204 202 182 200 177 196 192 183 205 198 235 149 223 234 142 228 242 253 263 262 256 258 269 283 335 25 25 24 17 1 312 272 252 247 245 242 240 243 246 246 245 242 242
199 214 190 186 170 169 188 209 200 98 123 75 211 284 300 258 246 248 266 259 272 298 81 51 43 38 37 38 30 21 22 20 7 310 272 259 254 251 248 251 252 250 249 248
222 208 192 184 147 212 179 148 191 207 209 227 244 250 231 246 246 253 267 128 66 68 49 33 26 27 29 32 28 29 24 18 15 10 1 326 288 272 264 258 254 253 253 250
153 246 207 157 205 192 168 195 208 187 195 204 231 248 202 223 216 176 166 96 94 91 70 45 28 32 31 28 24 21 17 11 5 1 355 347 337 324 302 277 265 258 256 253
203 185 198 209 204 205 202 205 199 200 221 223 205 245 219 232 198 155 137 123 116 91 75 64 48 43 40 37 34 26 22 16 6 359 352 344 337 329 318 310 297 275 265 255
189 201 181 165 29 173 213 213 213 219 62 194 209 244 189 134 135 146 147 152 140 111 71 38 52 49 29 28 27 24 17 12 9 6 6 356 349 340 330 325 316 305 281 270
189 216 228 225 226 147 196 211 209 208 220 221 220 245 142 153 149 165 164 174 147 149 167 201 17 28 16 16 7 22 1 359 357 3 2 6 352 347 340 328 324 316 306 285
203 216 214 227 253 189 195 207 212 209 218 215 229 223 223 190 195 195 198 179 140 141 107 45 41 13 6 5 3 5 352 355 353 348 352 1 352 350 347 341 332 325 316 305
203 240 210 231 236 210 216 212 216 216 222 226 238 237 225 201 198 188 178 167 142 116 69 41 17 16 11 5 1 357 353 352 353 350 347 351 352 343 350 347 337 329 321 315
200 212 197 226 222 197 238 217 214 217 223 214 218 230 125 196 197 174 156 140 136 114 85 42 13 6 358 1 359 352 349 351 349 347 347 348 346 344 339 346 340 332 325 321
197 207 206 244 165 224 243 208 219 219 225 213 229 244 172 144 85 75 78 112 94 77 43 26 358 353 2 1 356 351 354 354 351 349 344 344 343 339 338 340 337 329 320 314
257 219 218 220 224 326 325 250 193 185 225 222 221 205 129 125 95 51 60 71 75 63 37 17 358 0 0 0 355 350 349 350 352 345 339 337 336 335 335 330 330 324 323 316
195 221 199 182 226 223 180 73 356 147 219 12 310 179 150 150 173 152 82 62 56 47 30 14 7 3 4 359 354 348 348 349 348 339 332 330 329 326 325 322 322 320 321 317
199 189 204 205 190 284 39 313 298 170 178 44 29 18 130 118 50 96 71 57 42 28 15 14 10 8 1 358 354 349 346 348 335 330 328 325 323 321 321 320 318 321 321 321
185 179 176 144 155 215 358 319 45 59 68 56 42 26 68 80 65 63 48 38 28 16 11 10 5 0 360 359 355 346 344 336 332 330 326 327 322 322 322 322 321 320 320 316
136 3 106 19 103 74 42 69 39 49 73 57 51 35 41 61 46 33 25 20 13 10 7 2 358 349 353 352 353 341 334 334 333 331 329 327 322 322 323 322 319 318 318 315
59 16 85 156 81 83 59 63 55 48 54 51 45 39 35 43 36 23 16 6 3 2 1 354 351 346 337 339 338 334 334 336 331 329 328 326 325 322 321 319 316 312 313 311
349 327 26 88 121 114 77 44 38 40 37 35 42 40 33 24 27 12 2 360 356 349 345 347 342 334 326 328 331 335 336 334 328 325 324 324 323 320 318 314 311 310 305 301
358 10 5 57 28 359 82 55 33 34 24 21 23 25 25 21 15 3 353 348 340 332 335 339 335 325 324 327 326 333 336 334 326 321 322 321 318 316 314 316 315 309 302 305